[[{"header":{"parameterUnit":"m.s-1","parameterCategory":1,"la1":30.2991,"la2":30.254,"lo1":-89.0895,"lo2":-89.0444,"dy":0.0017,"dx":0.0017,"nx":28,"ny":28,"refTime":"2024-08-08T03:00:00:Z","depth":0,"parameterNumber":2,"parameterNumberName":"U-component_of_WINDS"},"data":[0,0,0,0,0,0,0,0,0,0,0,0,0,0,0,0,0,0,0,0,0,0,0,0,0,0,0,0,0,0,0,0,0,0,0,0,0,0,0,0,0,0,0,0,0,0,0,0,0,0,0,0,0,0,0,0,0,0,3.1161,3.1162,0,3.1341,3.1343,3.1345,3.1315,3.1312,3.1309,3.1306,3.1492,3.1499,3.1507,0,0,0,0,0,0,0,0,0,0,0,0,0,3.0787,3.0794,3.116,3.1163,3.1165,3.1341,3.1344,3.1346,3.1315,3.1312,3.1308,3.1304,3.1489,3.1499,3.1508,0,0,0,0,0,0,0,0,0,0,0,0,0,3.0957,3.0797,3.116,3.1171,3.1174,3.1341,3.1344,3.1347,3.1316,3.1311,3.1307,3.1302,3.1486,3.1498,3.1509,3.1677,0,0,3.1546,3.1551,0,0,0,0,0,0,0,0,3.0947,3.0971,3.1167,3.117,3.1174,3.1301,3.128,3.1458,3.1317,3.1262,3.1305,3.13,3.1432,3.1448,3.1492,3.1686,3.1694,3.1547,3.1554,3.1559,3.1562,0,0,0,0,0,0,0,3.0936,3.0963,3.1232,3.117,3.1174,3.1166,3.1185,3.1314,3.1371,3.1267,3.1265,3.1287,3.1433,3.1481,3.1497,3.1697,3.1546,3.1557,3.1564,3.1569,3.2033,3.2038,0,0,0,0,0,0,3.0921,3.0953,3.1226,3.1237,3.1047,3.1177,3.1198,3.1265,3.137,3.1381,3.129,3.1284,3.1463,3.1483,3.1503,3.1704,3.1559,3.157,3.1577,3.2028,3.2035,3.204,0,0,0,0,0,0,3.0913,3.0945,3.1219,3.1095,3.1129,3.1188,3.1264,3.1271,3.1319,3.1388,3.1398,3.1329,3.146,3.1486,3.1633,3.171,3.1575,3.1586,3.2022,3.203,3.2037,3.2109,0,0,0,0,0,0,3.0902,3.0943,3.1008,3.1097,3.1136,3.1347,3.1268,3.1278,3.1339,3.1333,3.1427,3.1438,3.1459,3.1616,3.1645,3.1724,3.1595,3.2015,3.2026,3.2035,3.21,3.2118,3.2134,0,0,0,0,0,3.0889,3.1021,3.1011,3.1044,3.1218,3.1351,3.1374,3.1394,3.1346,3.1411,3.1455,3.1435,3.1697,3.1631,3.1664,3.1747,3.2011,3.2023,3.2034,3.2092,3.2114,3.2133,0,0,0,0,0,0,3.094,3.1033,3.1023,3.1188,3.1262,3.1346,3.1429,3.1418,3.1508,3.1498,3.1521,3.1542,3.169,3.1734,3.1659,3.1914,3.1847,3.1866,3.188,3.1902,3.1918,3.1904,3.1605,0,0,0,0,0,3.0971,3.1071,3.1147,3.1285,3.1323,3.1369,3.1428,3.1438,3.1515,3.1547,3.1601,3.1678,3.1777,3.1842,3.1937,3.2106,3.2125,3.218,3.2197,3.221,3.2226,3.2315,3.234,3.2079,3.2079,3.2079,0,0,3.1035,3.1098,3.116,3.1297,3.1355,3.1458,3.1396,3.1508,3.1584,3.1564,3.1705,3.1748,3.1834,3.1992,3.2064,3.2033,3.2302,3.2225,3.2235,3.2244,3.233,3.2355,3.2376,3.2087,3.2086,3.2084,0,0,3.1204,3.1262,3.1382,3.1442,3.1531,3.156,3.1589,3.1675,3.1702,3.1844,3.183,3.1921,3.2093,3.2154,3.2207,3.2397,3.2381,3.2427,3.2515,3.2603,3.2623,3.2641,3.2706,3.273,3.2443,3.2443,3.2443,0,3.1272,3.1426,3.1446,3.1559,3.1618,3.1604,3.1725,3.1781,3.1897,3.1938,3.1901,3.2114,3.2172,3.2342,3.2388,3.2433,3.2465,3.2416,3.2619,3.2637,3.2654,3.2717,3.2742,3.2448,3.2448,3.2447,3.2447,0,3.1505,3.1612,3.1698,3.1809,3.1878,3.1995,3.2031,3.2099,3.2102,3.2136,3.2279,3.2347,3.2455,3.2496,3.2501,3.2667,3.2644,3.2613,3.2546,3.2684,3.2742,3.2767,3.2455,3.2453,3.2452,3.2451,0,0,3.1711,3.1829,3.1861,3.1909,3.2005,3.2088,3.2204,3.2308,3.2365,3.2445,3.2541,3.2685,3.2655,3.2716,3.2728,3.2805,3.2947,3.2764,3.2766,3.2793,3.3131,3.3152,3.318,3.2938,3.2942,3.2946,3.3123,0,3.1887,3.2089,3.2109,3.2291,3.2388,3.2375,3.2475,3.2544,3.2578,3.2666,3.2704,3.2804,3.2759,3.2795,3.2871,3.2914,3.3015,3.2902,3.3025,3.303,3.3002,3.3211,3.3235,3.3398,3.3146,3.315,3.3153,0,3.2119,3.2204,3.2395,3.2475,3.2517,3.2606,3.2702,3.2786,3.2864,3.2883,3.295,3.2951,3.3068,3.2997,3.3158,3.308,3.3132,3.3161,3.3168,3.3179,3.3098,3.3225,3.3451,3.3474,3.319,3.3187,3.3184,0,3.2247,3.241,3.2544,3.2587,3.2684,3.2747,3.279,3.2863,3.2924,3.3008,3.3047,3.3144,3.3197,3.3271,3.3298,3.3244,3.3457,3.3389,3.3474,3.3474,3.3518,3.3515,3.3753,3.3556,3.3555,3.3555,3.3554,0,3.244,3.2557,3.2602,3.2685,3.2814,3.2836,3.2964,3.3004,3.3068,3.3158,3.3153,3.3237,3.3267,3.3356,3.3378,3.3506,3.3531,3.3548,3.3552,3.3548,3.3545,3.3581,3.3569,3.3561,3.356,3.3559,3.3557,0,3.2605,3.2641,3.2786,3.2865,3.2888,3.298,3.3047,3.3126,3.3158,3.3271,3.3299,3.3349,3.3453,3.3487,3.3613,3.3627,3.3776,3.3772,3.375,3.375,3.3832,3.3823,3.41,3.4137,3.3917,3.3919,3.3921,0,3.2725,3.2814,3.2903,3.2962,3.3007,3.3103,3.3164,3.3188,3.3252,3.3346,3.3413,3.3516,3.3599,3.3765,3.3813,3.3908,3.3905,3.3995,3.3919,3.391,3.3903,3.3896,3.3904,3.4009,3.4011,3.4013,3.4015,0,3.2933,3.2946,3.3034,3.3129,3.3202,3.3277,3.335,3.3399,3.3433,3.3505,3.3611,3.3675,3.3803,3.3904,3.4001,3.4045,3.4035,3.4038,3.4062,3.4058,3.404,3.4048,3.3786,3.4031,3.403,3.4029,3.4028,3.4027,3.3078,3.3155,3.3229,3.3327,3.3384,3.3452,3.3529,3.357,3.3658,3.3763,3.3772,3.3885,3.3958,3.4087,3.4136,3.4224,3.4199,3.4235,3.4243,3.4251,3.4256,3.4028,3.4243,3.4242,3.4242,3.4241,3.4241,0,3.3283,3.333,3.342,3.3521,3.3598,3.3582,3.3661,3.3726,3.3825,3.3894,3.3975,3.4095,3.4193,3.4248,3.4345,3.4405,3.4402,3.4429,3.4424,3.4434,3.4275,3.4243,3.4429,3.4429,3.4429,3.4429,3.4429,3.4429,3.3399,3.3528,3.355,3.3706,3.3752,3.3862,3.3908,3.397,3.4025,3.4158,3.4239,3.4274,3.4337,3.4438,3.4526,3.4539,3.4574,3.4604,3.4614,3.4465,3.4445,3.4427,3.4397,3.4612,3.4612,3.4765,3.4766,3.4767]},{"header":{"parameterUnit":"m.s-1","parameterCategory":1,"la1":30.2991,"la2":30.254,"lo1":-89.0895,"lo2":-89.0444,"dy":0.0017,"dx":0.0017,"nx":28,"ny":28,"refTime":"2024-08-08T03:00:00:Z","depth":0,"parameterNumber":3,"parameterNumberName":"V-component_of_WINDS"},"data":[0,0,0,0,0,0,0,0,0,0,0,0,0,0,0,0,0,0,0,0,0,0,0,0,0,0,0,0,0,0,0,0,0,0,0,0,0,0,0,0,0,0,0,0,0,0,0,0,0,0,0,0,0,0,0,0,0,0,2.7293,2.7295,0,2.7456,2.7458,2.746,2.7448,2.7446,2.7444,2.7441,2.7603,2.7609,2.7616,0,0,0,0,0,0,0,0,0,0,0,0,0,2.6966,2.6972,2.7293,2.7295,2.7297,2.7456,2.7458,2.746,2.7449,2.7446,2.7443,2.744,2.7601,2.7608,2.7616,0,0,0,0,0,0,0,0,0,0,0,0,0,2.7116,2.6974,2.7293,2.7311,2.7314,2.7455,2.7458,2.7461,2.7449,2.7446,2.7442,2.7439,2.7598,2.7608,2.7617,2.775,0,0,2.7647,2.7652,0,0,0,0,0,0,0,0,2.7107,2.7128,2.7306,2.731,2.7314,2.7428,2.7402,2.7557,2.745,2.7398,2.7441,2.7437,2.7547,2.7561,2.7599,2.7757,2.7764,2.7648,2.7654,2.7658,2.7661,0,0,0,0,0,0,0,2.7097,2.7121,2.7357,2.7308,2.7313,2.7308,2.7326,2.7431,2.749,2.7402,2.7402,2.7421,2.7549,2.759,2.7603,2.7767,2.7648,2.7657,2.7663,2.7666,2.8037,2.8041,0,0,0,0,0,0,2.7083,2.7112,2.7352,2.7362,2.72,2.7317,2.7337,2.7395,2.7489,2.75,2.7424,2.742,2.7575,2.7592,2.7609,2.7767,2.7658,2.7667,2.7673,2.8033,2.8038,2.8043,0,0,0,0,0,0,2.7076,2.7105,2.7346,2.7237,2.7268,2.7327,2.7392,2.74,2.7441,2.7506,2.7516,2.7456,2.7573,2.7595,2.7714,2.7773,2.7672,2.7681,2.8029,2.8035,2.804,2.8087,0,0,0,0,0,0,2.7067,2.7102,2.7155,2.7239,2.7273,2.7451,2.7396,2.7406,2.7459,2.7455,2.7539,2.7549,2.7572,2.77,2.7724,2.7784,2.7688,2.8024,2.8032,2.8039,2.808,2.8093,2.8105,0,0,0,0,0,2.7055,2.7161,2.7158,2.7187,2.7341,2.7454,2.7474,2.7499,2.7464,2.7516,2.7557,2.7546,2.7763,2.7712,2.7739,2.7803,2.802,2.8029,2.8038,2.8075,2.8091,2.8105,0,0,0,0,0,0,2.7081,2.7172,2.717,2.7306,2.7373,2.7452,2.7518,2.7516,2.7593,2.7586,2.7613,2.7632,2.7751,2.7789,2.7731,2.7935,2.7886,2.7901,2.7905,2.7921,2.7933,2.792,2.7697,0,0,0,0,0,2.7103,2.719,2.7264,2.7377,2.7411,2.7459,2.7509,2.7523,2.7592,2.762,2.767,2.7736,2.7818,2.7872,2.7952,2.8086,2.8102,2.8144,2.8156,2.8166,2.8177,2.8248,2.8266,2.8072,2.8072,2.8072,0,0,2.7149,2.7209,2.7262,2.7384,2.7437,2.7523,2.7482,2.7576,2.764,2.7634,2.7749,2.7788,2.7863,2.799,2.8048,2.8025,2.8235,2.8177,2.8185,2.8191,2.8259,2.8277,2.8293,2.8078,2.8077,2.8076,0,0,2.7275,2.7331,2.743,2.7484,2.7566,2.7597,2.762,2.77,2.7726,2.7843,2.7839,2.7914,2.8057,2.811,2.8155,2.83,2.8292,2.8325,2.8389,2.8457,2.8472,2.8486,2.8535,2.8552,2.8337,2.8337,2.8338,0,2.7321,2.7453,2.7481,2.7575,2.7627,2.7627,2.7725,2.7776,2.7879,2.7914,2.7888,2.8065,2.8116,2.8253,2.8288,2.8326,2.8351,2.8315,2.8469,2.8482,2.8495,2.8542,2.856,2.8341,2.834,2.834,2.834,0,2.7503,2.7595,2.7664,2.7764,2.7825,2.7921,2.796,2.8018,2.8026,2.8059,2.8176,2.8237,2.8328,2.8362,2.8371,2.85,2.8483,2.8463,2.8414,2.8517,2.8561,2.8579,2.8345,2.8344,2.8343,2.8342,0,0,2.7649,2.7764,2.7788,2.7832,2.7922,2.7992,2.8087,2.8177,2.8224,2.8294,2.8372,2.8492,2.8473,2.8525,2.854,2.86,2.8707,2.8572,2.8574,2.8592,2.8849,2.8861,2.8882,2.8703,2.8707,2.871,2.8841,0,2.7782,2.7952,2.7979,2.8127,2.821,2.8211,2.8293,2.8355,2.8388,2.8461,2.8497,2.8581,2.8551,2.8582,2.8642,2.8681,2.8758,2.8673,2.8772,2.8776,2.8751,2.8906,2.892,2.9041,2.8859,2.8862,2.8864,0,2.796,2.8036,2.8192,2.8269,2.8304,2.8378,2.8461,2.8533,2.8602,2.8622,2.8679,2.8686,2.8781,2.8731,2.886,2.8801,2.8844,2.8869,2.8874,2.8882,2.8824,2.8915,2.9081,2.9098,2.8892,2.889,2.8888,0,2.8047,2.8188,2.83,2.8338,2.843,2.8481,2.8522,2.8588,2.864,2.8712,2.8746,2.8828,2.8872,2.8934,2.8963,2.8924,2.9089,2.9042,2.9105,2.9105,2.9138,2.9135,2.9311,2.9171,2.917,2.917,2.917,0,2.819,2.8285,2.8339,2.8407,2.8513,2.8542,2.8645,2.8684,2.8742,2.8816,2.8822,2.889,2.8925,2.8998,2.902,2.9122,2.9143,2.9159,2.9163,2.9157,2.9155,2.9183,2.9175,2.9175,2.9174,2.9173,2.9172,0,2.8304,2.8345,2.8465,2.8543,2.8565,2.8639,2.8704,2.8769,2.8802,2.8895,2.8918,2.8969,2.9055,2.909,2.9195,2.921,2.9326,2.9326,2.9303,2.9304,2.9364,2.9357,2.9562,2.9589,2.9434,2.9435,2.9436,0,2.8391,2.8465,2.855,2.8601,2.8643,2.8725,2.8778,2.8809,2.8864,2.8948,2.9001,2.9088,2.9158,2.9295,2.934,2.9419,2.9418,2.9485,2.943,2.9421,2.9416,2.941,2.9416,2.9494,2.9496,2.9497,2.9498,0,2.8541,2.8558,2.8635,2.8719,2.8783,2.885,2.8915,2.8956,2.8997,2.9057,2.9146,2.9201,2.9308,2.9392,2.9474,2.9513,2.9511,2.9515,2.9533,2.9526,2.9509,2.9516,2.9327,2.951,2.9508,2.9508,2.9507,2.9506,2.8643,2.8706,2.8777,2.8862,2.8915,2.8975,2.9039,2.9081,2.9156,2.9247,2.9261,2.9354,2.942,2.953,2.9572,2.9644,2.9627,2.9654,2.9661,2.9666,2.9669,2.95,2.966,2.9659,2.9659,2.9659,2.9659,0,2.879,2.8835,2.8914,2.9005,2.9071,2.9067,2.9139,2.9193,2.9277,2.9339,2.9409,2.9509,2.959,2.9642,2.9723,2.9771,2.9772,2.9791,2.9786,2.9795,2.9681,2.9656,2.9789,2.9789,2.9789,2.9789,2.9789,2.9788,2.8874,2.8981,2.9006,2.9138,2.9182,2.9276,2.9317,2.9372,2.9421,2.9534,2.9602,2.9636,2.9693,2.9779,2.9852,2.9865,2.9893,2.9913,2.9924,2.9816,2.9803,2.979,2.9766,2.992,2.992,3.0031,3.0032,3.0033]}]]